Time,TemperatureF,DewpointF,PressureIn,WindDirection,WindDirectionDegrees,WindSpeedMPH,WindSpeedGustMPH,Humidity,HourlyPrecipIn,Conditions,Clouds,dailyrainin,SoftwareType,DateUTC
2013-07-06 00:00:00,71.1,71.0,29.20,SSW,202,0.0,0.0,100,0.00,,,0.00,Rainwise IP-100,2013-07-06 04:00:00,
2013-07-06 00:01:00,71.1,71.0,29.20,SSW,202,0.0,0.0,100,0.00,,,0.00,Rainwise IP-100,2013-07-06 04:01:00,
2013-07-06 00:06:00,71.1,71.0,29.20,SSW,202,0.0,0.0,100,0.00,,,0.00,Rainwise IP-100,2013-07-06 04:06:00,
2013-07-06 00:11:00,71.2,71.3,29.20,SSW,202,0.0,1.4,100,0.00,,,0.00,Rainwise IP-100,2013-07-06 04:11:00,
2013-07-06 00:16:00,71.2,71.3,29.20,SSW,202,0.0,0.0,100,0.00,,,0.00,Rainwise IP-100,2013-07-06 04:16:00,
2013-07-06 00:18:00,71.2,71.3,29.20,SSW,202,0.0,0.0,100,0.00,,,0.00,Rainwise IP-100,2013-07-06 04:18:00,
2013-07-06 00:23:00,71.2,71.3,29.20,SSW,202,0.0,0.0,100,0.00,,,0.00,Rainwise IP-100,2013-07-06 04:23:00,
2013-07-06 00:28:00,71.2,71.3,29.20,SSW,202,0.0,0.0,100,0.00,,,0.00,Rainwise IP-100,2013-07-06 04:28:00,
2013-07-06 00:33:00,71.3,71.3,29.20,SSW,202,0.0,1.2,100,0.00,,,0.00,Rainwise IP-100,2013-07-06 04:33:00,
2013-07-06 00:38:00,71.3,71.3,29.20,SSW,202,0.0,0.0,100,0.00,,,0.00,Rainwise IP-100,2013-07-06 04:38:00,
2013-07-06 00:43:00,71.4,71.3,29.20,SSW,202,0.0,1.4,100,0.00,,,0.00,Rainwise IP-100,2013-07-06 04:43:00,
2013-07-06 00:48:00,71.5,71.7,29.20,SSW,202,0.0,0.0,100,0.00,,,0.00,Rainwise IP-100,2013-07-06 04:48:00,
2013-07-06 00:53:00,71.5,71.7,29.20,SSW,202,0.0,0.0,100,0.00,,,0.00,Rainwise IP-100,2013-07-06 04:53:00,
2013-07-06 00:58:00,71.6,71.7,29.20,SSW,202,0.0,2.3,100,0.00,,,0.00,Rainwise IP-100,2013-07-06 04:58:00,
2013-07-06 01:03:00,71.6,71.7,29.20,SSW,202,0.0,0.0,100,0.00,,,0.00,Rainwise IP-100,2013-07-06 05:03:00,
2013-07-06 01:08:00,71.6,71.7,29.20,SSW,202,0.0,0.0,100,0.00,,,0.00,Rainwise IP-100,2013-07-06 05:08:00,
2013-07-06 01:13:00,71.6,71.7,29.20,SSW,202,0.0,0.0,100,0.00,,,0.00,Rainwise IP-100,2013-07-06 05:13:00,
2013-07-06 01:18:00,71.6,71.7,29.20,SSW,202,0.0,0.0,100,0.00,,,0.00,Rainwise IP-100,2013-07-06 05:18:00,
2013-07-06 01:23:00,71.6,71.7,29.20,SSW,202,0.0,0.0,100,0.00,,,0.00,Rainwise IP-100,2013-07-06 05:23:00,
2013-07-06 01:28:00,71.6,71.7,29.20,SSW,202,0.0,0.0,100,0.00,,,0.00,Rainwise IP-100,2013-07-06 05:28:00,
2013-07-06 01:33:00,71.6,71.7,29.20,SSW,202,0.0,1.6,100,0.00,,,0.00,Rainwise IP-100,2013-07-06 05:33:00,
2013-07-06 01:38:00,71.6,71.7,29.21,South,180,0.0,2.6,100,0.00,,,0.00,Rainwise IP-100,2013-07-06 05:38:00,
2013-07-06 01:43:00,71.6,71.7,29.20,South,180,0.0,2.3,100,0.00,,,0.00,Rainwise IP-100,2013-07-06 05:43:00,
2013-07-06 01:48:00,71.6,71.7,29.20,South,180,0.0,0.0,100,0.00,,,0.00,Rainwise IP-100,2013-07-06 05:48:00,
2013-07-06 01:53:00,71.6,71.7,29.20,South,180,0.0,0.0,100,0.00,,,0.00,Rainwise IP-100,2013-07-06 05:53:00,
2013-07-06 01:58:00,71.6,71.7,29.20,South,180,0.0,1.4,100,0.00,,,0.00,Rainwise IP-100,2013-07-06 05:58:00,
2013-07-06 02:03:00,71.6,71.7,29.20,South,180,0.0,0.0,100,0.00,,,0.00,Rainwise IP-100,2013-07-06 06:03:00,
2013-07-06 02:08:00,71.6,71.7,29.19,South,180,0.0,0.0,100,0.00,,,0.00,Rainwise IP-100,2013-07-06 06:08:00,
2013-07-06 02:13:00,71.6,71.7,29.19,South,180,0.0,0.0,100,0.00,,,0.00,Rainwise IP-100,2013-07-06 06:13:00,
2013-07-06 02:18:00,71.6,71.7,29.19,South,180,0.0,0.0,100,0.00,,,0.00,Rainwise IP-100,2013-07-06 06:18:00,
2013-07-06 02:23:00,71.6,71.7,29.19,South,180,0.0,1.2,100,0.00,,,0.00,Rainwise IP-100,2013-07-06 06:23:00,
2013-07-06 02:28:00,71.5,71.7,29.19,South,180,0.0,0.0,100,0.06,,,0.01,Rainwise IP-100,2013-07-06 06:28:00,
2013-07-06 02:33:00,71.5,71.7,29.18,South,180,0.0,0.0,100,0.06,,,0.01,Rainwise IP-100,2013-07-06 06:33:00,
2013-07-06 02:38:00,71.6,71.7,29.18,South,180,0.0,0.0,100,0.00,,,0.01,Rainwise IP-100,2013-07-06 06:38:00,
2013-07-06 02:43:00,71.6,71.7,29.18,South,180,0.0,0.0,100,0.00,,,0.01,Rainwise IP-100,2013-07-06 06:43:00,
2013-07-06 02:48:00,71.6,71.7,29.18,South,180,0.0,0.0,100,0.00,,,0.01,Rainwise IP-100,2013-07-06 06:48:00,
2013-07-06 02:53:00,71.6,71.7,29.18,South,180,0.0,0.0,100,0.00,,,0.01,Rainwise IP-100,2013-07-06 06:53:00,
2013-07-06 02:58:00,71.6,71.7,29.18,South,180,0.0,0.0,100,0.00,,,0.01,Rainwise IP-100,2013-07-06 06:58:00,
2013-07-06 03:03:00,71.6,71.7,29.18,South,180,1.2,1.4,100,0.00,,,0.01,Rainwise IP-100,2013-07-06 07:03:00,
2013-07-06 03:08:00,71.6,71.7,29.18,South,180,0.0,1.6,100,0.00,,,0.01,Rainwise IP-100,2013-07-06 07:08:00,
2013-07-06 03:13:00,71.6,71.7,29.18,South,180,0.0,1.2,100,0.00,,,0.01,Rainwise IP-100,2013-07-06 07:13:00,
2013-07-06 03:18:00,71.6,71.7,29.18,South,180,0.0,1.6,100,0.00,,,0.01,Rainwise IP-100,2013-07-06 07:18:00,
2013-07-06 03:23:00,71.6,71.7,29.18,South,180,0.0,0.0,100,0.00,,,0.01,Rainwise IP-100,2013-07-06 07:23:00,
2013-07-06 03:28:00,71.7,71.7,29.18,South,180,0.0,1.6,100,0.00,,,0.01,Rainwise IP-100,2013-07-06 07:28:00,
2013-07-06 03:33:00,71.7,71.7,29.18,South,180,2.1,2.1,100,0.00,,,0.01,Rainwise IP-100,2013-07-06 07:33:00,
2013-07-06 03:38:00,71.7,71.7,29.18,South,180,0.0,2.1,100,0.00,,,0.01,Rainwise IP-100,2013-07-06 07:38:00,
2013-07-06 03:43:00,71.8,71.7,29.18,South,180,0.0,1.9,100,0.00,,,0.01,Rainwise IP-100,2013-07-06 07:43:00,
2013-07-06 03:48:00,71.9,72.0,29.18,South,180,0.0,1.9,100,0.00,,,0.01,Rainwise IP-100,2013-07-06 07:48:00,
2013-07-06 03:53:00,71.9,72.0,29.18,South,180,1.2,1.4,100,0.00,,,0.01,Rainwise IP-100,2013-07-06 07:53:00,
2013-07-06 03:58:00,72.0,72.0,29.18,South,180,0.0,1.9,100,0.00,,,0.01,Rainwise IP-100,2013-07-06 07:58:00,
2013-07-06 04:03:00,72.0,72.0,29.18,South,180,0.0,1.2,100,0.00,,,0.01,Rainwise IP-100,2013-07-06 08:03:00,
2013-07-06 04:08:00,72.0,72.0,29.18,South,180,0.0,0.0,100,0.00,,,0.01,Rainwise IP-100,2013-07-06 08:08:00,
2013-07-06 04:13:00,72.1,72.0,29.17,South,180,0.0,0.0,100,0.00,,,0.01,Rainwise IP-100,2013-07-06 08:13:00,
2013-07-06 04:18:00,72.1,72.0,29.18,South,180,1.4,1.4,100,0.00,,,0.01,Rainwise IP-100,2013-07-06 08:18:00,
2013-07-06 04:23:00,72.1,72.0,29.18,South,180,0.0,1.6,100,0.00,,,0.01,Rainwise IP-100,2013-07-06 08:23:00,
2013-07-06 04:28:00,72.1,72.0,29.18,South,180,0.0,0.0,100,0.00,,,0.01,Rainwise IP-100,2013-07-06 08:28:00,
2013-07-06 04:33:00,72.1,72.0,29.18,South,180,0.0,0.0,100,0.00,,,0.01,Rainwise IP-100,2013-07-06 08:33:00,
2013-07-06 04:38:00,72.1,72.0,29.19,South,180,0.0,0.0,100,0.00,,,0.01,Rainwise IP-100,2013-07-06 08:38:00,
2013-07-06 04:43:00,72.1,72.0,29.18,South,180,0.0,0.0,100,0.00,,,0.01,Rainwise IP-100,2013-07-06 08:43:00,
2013-07-06 04:48:00,72.1,72.0,29.19,South,180,0.0,0.0,100,0.00,,,0.01,Rainwise IP-100,2013-07-06 08:48:00,
2013-07-06 04:53:00,72.1,72.0,29.18,South,180,0.0,0.0,100,0.00,,,0.01,Rainwise IP-100,2013-07-06 08:53:00,
2013-07-06 04:58:00,72.1,72.0,29.18,South,180,0.0,0.0,100,0.00,,,0.01,Rainwise IP-100,2013-07-06 08:58:00,
2013-07-06 05:03:00,72.1,72.0,29.18,South,180,0.0,0.0,100,0.00,,,0.01,Rainwise IP-100,2013-07-06 09:03:00,
2013-07-06 05:08:00,72.1,72.0,29.19,South,180,0.0,0.0,100,0.00,,,0.01,Rainwise IP-100,2013-07-06 09:08:00,
2013-07-06 05:13:00,72.1,72.0,29.19,SW,225,0.0,1.4,100,0.00,,,0.01,Rainwise IP-100,2013-07-06 09:13:00,
2013-07-06 05:18:00,72.1,72.0,29.19,SW,225,0.0,0.0,100,0.00,,,0.01,Rainwise IP-100,2013-07-06 09:18:00,
2013-07-06 05:23:00,72.1,72.0,29.18,SW,225,0.0,0.0,100,0.00,,,0.01,Rainwise IP-100,2013-07-06 09:23:00,
2013-07-06 05:28:00,72.1,72.0,29.18,SW,225,0.0,0.0,100,0.00,,,0.01,Rainwise IP-100,2013-07-06 09:28:00,
2013-07-06 05:33:00,72.1,72.0,29.18,SW,225,0.0,0.0,100,0.00,,,0.01,Rainwise IP-100,2013-07-06 09:33:00,
2013-07-06 05:38:00,72.1,72.0,29.19,SW,225,0.0,0.0,100,0.00,,,0.01,Rainwise IP-100,2013-07-06 09:38:00,
2013-07-06 05:43:00,72.1,72.0,29.19,SW,225,0.0,0.0,100,0.00,,,0.01,Rainwise IP-100,2013-07-06 09:43:00,
2013-07-06 05:48:00,72.1,72.0,29.18,SW,225,0.0,0.0,100,0.00,,,0.01,Rainwise IP-100,2013-07-06 09:48:00,
2013-07-06 05:53:00,72.1,72.0,29.19,SW,225,0.0,0.0,100,0.00,,,0.01,Rainwise IP-100,2013-07-06 09:53:00,
2013-07-06 05:58:00,72.1,72.0,29.19,SW,225,0.0,1.4,100,0.00,,,0.01,Rainwise IP-100,2013-07-06 09:58:00,
2013-07-06 06:03:00,72.1,72.0,29.19,SW,225,0.0,0.0,100,0.00,,,0.01,Rainwise IP-100,2013-07-06 10:03:00,
2013-07-06 06:08:00,72.1,72.0,29.19,SSW,202,0.0,1.6,100,0.00,,,0.01,Rainwise IP-100,2013-07-06 10:08:00,
2013-07-06 06:13:00,72.1,72.0,29.19,SSW,202,0.0,0.0,100,0.00,,,0.01,Rainwise IP-100,2013-07-06 10:13:00,
2013-07-06 06:18:00,72.1,72.0,29.19,SSW,202,0.0,0.0,100,0.00,,,0.01,Rainwise IP-100,2013-07-06 10:18:00,
2013-07-06 06:23:00,72.0,72.0,29.20,SSW,202,0.0,0.0,100,0.00,,,0.01,Rainwise IP-100,2013-07-06 10:23:00,
2013-07-06 06:28:00,72.0,72.0,29.20,SSW,202,0.0,0.0,100,0.00,,,0.01,Rainwise IP-100,2013-07-06 10:28:00,
2013-07-06 06:33:00,71.9,72.0,29.19,SSW,202,0.0,0.0,100,0.00,,,0.01,Rainwise IP-100,2013-07-06 10:33:00,
2013-07-06 06:38:00,71.9,72.0,29.20,SSW,202,0.0,0.0,100,0.00,,,0.01,Rainwise IP-100,2013-07-06 10:38:00,
2013-07-06 06:43:00,72.0,72.0,29.20,SSW,202,0.0,0.0,100,0.00,,,0.01,Rainwise IP-100,2013-07-06 10:43:00,
2013-07-06 06:48:00,72.1,72.0,29.20,SSW,202,0.0,0.0,100,0.00,,,0.01,Rainwise IP-100,2013-07-06 10:48:00,
2013-07-06 06:53:00,72.1,72.0,29.20,SSW,202,0.0,0.0,100,0.00,,,0.01,Rainwise IP-100,2013-07-06 10:53:00,
2013-07-06 06:58:00,72.1,72.0,29.20,SSW,202,0.0,0.0,100,0.00,,,0.01,Rainwise IP-100,2013-07-06 10:58:00,
2013-07-06 07:03:00,72.2,72.3,29.19,SSW,202,0.0,0.0,100,0.00,,,0.01,Rainwise IP-100,2013-07-06 11:03:00,
2013-07-06 07:08:00,72.2,72.3,29.19,SSW,202,0.0,0.0,100,0.00,,,0.01,Rainwise IP-100,2013-07-06 11:08:00,
2013-07-06 07:13:00,72.3,72.3,29.19,SSW,202,0.0,0.0,100,0.00,,,0.01,Rainwise IP-100,2013-07-06 11:13:00,
2013-07-06 07:18:00,72.4,72.3,29.20,SSW,202,0.0,0.0,100,0.00,,,0.01,Rainwise IP-100,2013-07-06 11:18:00,
2013-07-06 07:23:00,72.5,72.7,29.20,SSW,202,0.0,2.3,100,0.00,,,0.01,Rainwise IP-100,2013-07-06 11:23:00,
2013-07-06 07:28:00,72.5,72.7,29.20,SSW,202,0.0,0.0,100,0.00,,,0.01,Rainwise IP-100,2013-07-06 11:28:00,
2013-07-06 07:33:00,72.5,72.7,29.20,SSW,202,0.0,0.0,100,0.00,,,0.01,Rainwise IP-100,2013-07-06 11:33:00,
2013-07-06 07:38:00,72.7,72.7,29.20,SSW,202,0.0,0.0,100,0.00,,,0.01,Rainwise IP-100,2013-07-06 11:38:00,
2013-07-06 07:43:00,72.8,72.7,29.20,SSW,202,0.0,0.0,100,0.00,,,0.01,Rainwise IP-100,2013-07-06 11:43:00,
2013-07-06 07:48:00,72.8,72.7,29.20,SSW,202,0.0,3.7,100,0.00,,,0.01,Rainwise IP-100,2013-07-06 11:48:00,
2013-07-06 07:53:00,72.8,72.7,29.20,South,180,2.3,2.3,100,0.00,,,0.01,Rainwise IP-100,2013-07-06 11:53:00,
2013-07-06 07:58:00,72.9,73.0,29.21,South,180,0.0,2.6,100,0.00,,,0.01,Rainwise IP-100,2013-07-06 11:58:00,
2013-07-06 08:03:00,73.0,73.0,29.20,South,180,0.0,1.2,100,0.00,,,0.01,Rainwise IP-100,2013-07-06 12:03:00,
2013-07-06 08:08:00,73.1,73.0,29.21,South,180,1.4,3.7,100,0.00,,,0.01,Rainwise IP-100,2013-07-06 12:08:00,
2013-07-06 08:13:00,73.3,73.3,29.21,South,180,1.4,1.4,100,0.00,,,0.01,Rainwise IP-100,2013-07-06 12:13:00,
2013-07-06 08:18:00,73.4,73.3,29.20,South,180,1.2,1.9,100,0.00,,,0.01,Rainwise IP-100,2013-07-06 12:18:00,
2013-07-06 08:23:00,73.4,73.3,29.21,SSW,202,2.3,3.3,100,0.00,,,0.01,Rainwise IP-100,2013-07-06 12:23:00,
2013-07-06 08:28:00,73.4,73.3,29.20,SSW,202,0.0,3.0,100,0.00,,,0.01,Rainwise IP-100,2013-07-06 12:28:00,
2013-07-06 08:34:00,73.5,73.7,29.21,SSW,202,0.0,1.6,100,0.00,,,0.01,Rainwise IP-100,2013-07-06 12:34:00,
2013-07-06 08:39:00,73.5,73.7,29.21,SSW,202,0.0,2.8,100,0.00,,,0.01,Rainwise IP-100,2013-07-06 12:39:00,
2013-07-06 08:44:00,73.5,73.7,29.20,SSW,202,0.0,2.1,100,0.00,,,0.01,Rainwise IP-100,2013-07-06 12:44:00,
2013-07-06 08:49:00,73.6,73.7,29.21,SSW,202,0.0,1.4,100,0.00,,,0.01,Rainwise IP-100,2013-07-06 12:49:00,
2013-07-06 08:54:00,73.6,73.7,29.21,NW,315,0.0,2.6,100,0.00,,,0.01,Rainwise IP-100,2013-07-06 12:54:00,
2013-07-06 08:59:00,73.8,73.7,29.21,SSW,202,0.0,2.6,100,0.00,,,0.01,Rainwise IP-100,2013-07-06 12:59:00,
2013-07-06 09:04:00,73.8,73.7,29.22,SSW,202,0.0,1.9,100,0.00,,,0.01,Rainwise IP-100,2013-07-06 13:04:00,
2013-07-06 09:09:00,73.9,74.0,29.21,SSW,202,0.0,3.0,100,0.00,,,0.01,Rainwise IP-100,2013-07-06 13:09:00,
2013-07-06 09:14:00,74.0,74.0,29.21,SW,225,0.0,2.6,100,0.00,,,0.01,Rainwise IP-100,2013-07-06 13:14:00,
2013-07-06 09:19:00,74.1,74.0,29.21,SSW,202,0.0,4.2,100,0.00,,,0.01,Rainwise IP-100,2013-07-06 13:19:00,
2013-07-06 09:24:00,74.2,74.3,29.21,South,180,1.2,1.2,100,0.00,,,0.01,Rainwise IP-100,2013-07-06 13:24:00,
2013-07-06 09:29:00,74.3,74.3,29.21,SSW,202,1.4,4.4,100,0.00,,,0.01,Rainwise IP-100,2013-07-06 13:29:00,
2013-07-06 09:34:00,74.4,74.3,29.21,South,180,2.8,4.9,100,0.00,,,0.01,Rainwise IP-100,2013-07-06 13:34:00,
2013-07-06 09:39:00,74.5,74.7,29.21,SSW,202,1.4,4.7,100,0.00,,,0.01,Rainwise IP-100,2013-07-06 13:39:00,
2013-07-06 09:44:00,74.6,74.7,29.21,SSW,202,0.0,2.1,100,0.00,,,0.01,Rainwise IP-100,2013-07-06 13:44:00,
2013-07-06 09:49:00,74.7,74.7,29.21,SSE,157,0.0,4.0,100,0.00,,,0.01,Rainwise IP-100,2013-07-06 13:49:00,
2013-07-06 09:54:00,74.9,75.0,29.21,South,180,1.4,3.3,100,0.00,,,0.01,Rainwise IP-100,2013-07-06 13:54:00,
2013-07-06 09:59:00,75.1,75.0,29.21,SSW,202,0.0,2.8,100,0.00,,,0.01,Rainwise IP-100,2013-07-06 13:59:00,
2013-07-06 10:04:00,75.2,74.7,29.21,South,180,1.6,4.0,99,0.00,,,0.01,Rainwise IP-100,2013-07-06 14:04:00,
2013-07-06 10:09:00,75.4,75.0,29.21,South,180,2.6,2.6,99,0.06,,,0.02,Rainwise IP-100,2013-07-06 14:09:00,
2013-07-06 10:14:00,75.5,74.7,29.21,South,180,1.4,4.9,98,0.06,,,0.02,Rainwise IP-100,2013-07-06 14:14:00,
2013-07-06 10:19:00,75.6,74.7,29.21,SSW,202,1.9,7.5,98,0.00,,,0.02,Rainwise IP-100,2013-07-06 14:19:00,
2013-07-06 10:24:00,75.7,74.7,29.21,SSW,202,1.9,3.7,98,0.00,,,0.02,Rainwise IP-100,2013-07-06 14:24:00,
2013-07-06 10:29:00,75.8,75.0,29.21,South,180,2.3,3.0,98,0.00,,,0.02,Rainwise IP-100,2013-07-06 14:29:00,
2013-07-06 10:34:00,75.9,75.0,29.21,SSW,202,2.3,4.0,98,0.00,,,0.02,Rainwise IP-100,2013-07-06 14:34:00,
2013-07-06 10:39:00,76.0,75.0,29.21,SSW,202,1.4,4.2,98,0.00,,,0.02,Rainwise IP-100,2013-07-06 14:39:00,
2013-07-06 10:44:00,76.1,75.0,29.21,SSW,202,0.0,3.0,98,0.00,,,0.02,Rainwise IP-100,2013-07-06 14:44:00,
2013-07-06 10:49:00,76.3,75.0,29.21,SSE,157,0.0,1.9,97,0.00,,,0.02,Rainwise IP-100,2013-07-06 14:49:00,
2013-07-06 10:54:00,76.3,75.0,29.20,South,180,2.6,4.4,97,0.00,,,0.02,Rainwise IP-100,2013-07-06 14:54:00,
2013-07-06 10:59:00,76.2,75.0,29.20,South,180,1.9,3.7,97,0.00,,,0.02,Rainwise IP-100,2013-07-06 14:59:00,
2013-07-06 11:04:00,76.0,74.7,29.21,South,180,2.3,4.9,97,0.00,,,0.02,Rainwise IP-100,2013-07-06 15:04:00,
2013-07-06 11:09:00,75.8,75.0,29.21,South,180,1.2,4.4,98,0.00,,,0.02,Rainwise IP-100,2013-07-06 15:09:00,
2013-07-06 11:14:00,75.8,75.0,29.21,South,180,1.2,2.8,98,0.00,,,0.02,Rainwise IP-100,2013-07-06 15:14:00,
2013-07-06 11:19:00,75.9,75.5,29.21,South,180,0.0,3.0,99,0.00,,,0.02,Rainwise IP-100,2013-07-06 15:19:00,
2013-07-06 11:24:00,76.1,75.5,29.21,South,180,0.0,3.7,99,0.00,,,0.02,Rainwise IP-100,2013-07-06 15:24:00,
2013-07-06 11:29:00,76.3,76.0,29.21,South,180,0.0,5.6,99,0.00,,,0.02,Rainwise IP-100,2013-07-06 15:29:00,
2013-07-06 11:34:00,76.5,76.0,29.20,South,180,2.6,3.3,98,0.00,,,0.02,Rainwise IP-100,2013-07-06 15:34:00,
2013-07-06 11:39:00,76.7,76.3,29.21,South,180,0.0,3.5,98,0.00,,,0.02,Rainwise IP-100,2013-07-06 15:39:00,
2013-07-06 11:44:00,76.8,76.3,29.21,South,180,6.3,6.3,98,0.00,,,0.02,Rainwise IP-100,2013-07-06 15:44:00,
2013-07-06 11:49:00,76.9,76.3,29.20,South,180,1.2,7.5,97,0.00,,,0.02,Rainwise IP-100,2013-07-06 15:49:00,
2013-07-06 11:54:00,77.0,76.3,29.20,SSE,157,1.6,3.5,97,0.00,,,0.02,Rainwise IP-100,2013-07-06 15:54:00,
2013-07-06 11:59:00,77.2,76.5,29.20,South,180,4.0,4.9,97,0.00,,,0.02,Rainwise IP-100,2013-07-06 15:59:00,
2013-07-06 12:04:00,77.5,76.5,29.20,South,180,0.0,6.1,96,0.00,,,0.02,Rainwise IP-100,2013-07-06 16:04:00,
2013-07-06 12:09:00,77.8,76.3,29.20,South,180,0.0,4.9,95,0.00,,,0.02,Rainwise IP-100,2013-07-06 16:09:00,
2013-07-06 12:14:00,78.1,76.5,29.20,SSW,202,1.9,4.7,95,0.00,,,0.02,Rainwise IP-100,2013-07-06 16:14:00,
2013-07-06 12:19:00,78.4,76.5,29.20,South,180,0.0,5.1,94,0.00,,,0.02,Rainwise IP-100,2013-07-06 16:19:00,
2013-07-06 12:24:00,78.7,76.5,29.20,SSW,202,2.3,4.9,93,0.00,,,0.02,Rainwise IP-100,2013-07-06 16:24:00,
2013-07-06 12:29:00,78.8,76.5,29.19,South,180,2.1,5.4,93,0.00,,,0.02,Rainwise IP-100,2013-07-06 16:29:00,
2013-07-06 12:34:00,78.9,76.8,29.20,South,180,2.3,3.5,93,0.00,,,0.02,Rainwise IP-100,2013-07-06 16:34:00,
2013-07-06 12:39:00,78.8,76.5,29.19,South,180,0.0,5.8,93,0.00,,,0.02,Rainwise IP-100,2013-07-06 16:39:00,
2013-07-06 12:44:00,78.6,76.5,29.19,South,180,0.0,6.5,93,0.00,,,0.02,Rainwise IP-100,2013-07-06 16:44:00,
2013-07-06 12:49:00,78.2,76.3,29.19,South,180,1.4,2.6,93,0.00,,,0.02,Rainwise IP-100,2013-07-06 16:49:00,
2013-07-06 12:54:00,77.9,76.3,29.19,South,180,3.3,3.7,94,0.00,,,0.02,Rainwise IP-100,2013-07-06 16:54:00,
2013-07-06 12:59:00,77.9,76.5,29.19,South,180,4.0,4.2,95,0.00,,,0.02,Rainwise IP-100,2013-07-06 16:59:00,
2013-07-06 13:04:00,78.2,76.8,29.19,South,180,1.4,4.7,95,0.00,,,0.02,Rainwise IP-100,2013-07-06 17:04:00,
2013-07-06 13:09:00,78.5,77.0,29.18,SSW,202,0.0,4.2,95,0.00,,,0.02,Rainwise IP-100,2013-07-06 17:09:00,
2013-07-06 13:14:00,78.6,76.8,29.18,SSW,202,1.4,1.9,94,0.00,,,0.02,Rainwise IP-100,2013-07-06 17:14:00,
2013-07-06 13:19:00,78.4,76.5,29.18,SSW,202,0.0,2.1,94,0.00,,,0.02,Rainwise IP-100,2013-07-06 17:19:00,
2013-07-06 13:24:00,78.2,76.5,29.19,South,180,2.3,2.3,94,0.00,,,0.02,Rainwise IP-100,2013-07-06 17:24:00,
2013-07-06 13:29:00,78.1,76.5,29.18,SSE,157,0.0,2.3,95,0.00,,,0.02,Rainwise IP-100,2013-07-06 17:29:00,
2013-07-06 13:34:00,78.0,76.5,29.18,SSE,157,0.0,1.9,95,0.00,,,0.02,Rainwise IP-100,2013-07-06 17:34:00,
2013-07-06 13:39:00,78.0,76.8,29.17,SSE,157,0.0,0.0,96,0.00,,,0.02,Rainwise IP-100,2013-07-06 17:39:00,
2013-07-06 13:44:00,78.2,77.0,29.17,SSE,157,0.0,2.1,96,0.00,,,0.02,Rainwise IP-100,2013-07-06 17:44:00,
2013-07-06 13:49:00,78.3,77.0,29.17,SSE,157,0.0,1.4,96,0.00,,,0.02,Rainwise IP-100,2013-07-06 17:49:00,
2013-07-06 13:54:00,78.3,77.0,29.17,SSE,157,0.0,0.0,96,0.00,,,0.02,Rainwise IP-100,2013-07-06 17:54:00,
2013-07-06 13:59:00,78.4,77.0,29.17,SSE,157,1.2,1.4,96,0.00,,,0.02,Rainwise IP-100,2013-07-06 17:59:00,
2013-07-06 14:04:00,78.7,77.3,29.16,WNW,292,0.0,1.6,96,0.00,,,0.02,Rainwise IP-100,2013-07-06 18:04:00,
2013-07-06 14:09:00,79.0,77.3,29.17,South,180,3.7,3.7,95,0.00,,,0.02,Rainwise IP-100,2013-07-06 18:09:00,
2013-07-06 14:14:00,78.8,76.8,29.17,South,180,3.7,5.6,94,0.00,,,0.02,Rainwise IP-100,2013-07-06 18:14:00,
2013-07-06 14:19:00,78.2,76.0,29.17,South,180,0.0,3.7,92,0.00,,,0.02,Rainwise IP-100,2013-07-06 18:19:00,
2013-07-06 14:24:00,77.3,75.0,29.17,SSW,202,0.0,0.0,93,0.00,,,0.02,Rainwise IP-100,2013-07-06 18:24:00,
2013-07-06 14:29:00,76.8,74.7,29.17,SSW,202,0.0,0.0,94,0.00,,,0.02,Rainwise IP-100,2013-07-06 18:29:00,
2013-07-06 14:34:00,76.4,74.7,29.16,SSW,202,0.0,0.0,95,0.00,,,0.02,Rainwise IP-100,2013-07-06 18:34:00,
2013-07-06 14:39:00,76.2,74.7,29.16,SSW,202,0.0,0.0,96,0.00,,,0.02,Rainwise IP-100,2013-07-06 18:39:00,
2013-07-06 14:44:00,76.2,75.0,29.16,SSW,202,0.0,0.0,97,0.00,,,0.02,Rainwise IP-100,2013-07-06 18:44:00,
2013-07-06 14:49:00,76.4,75.5,29.16,SSW,202,0.0,0.0,97,0.00,,,0.02,Rainwise IP-100,2013-07-06 18:49:00,
2013-07-06 14:54:00,76.6,75.5,29.15,SSW,202,0.0,0.0,97,0.00,,,0.02,Rainwise IP-100,2013-07-06 18:54:00,
2013-07-06 14:59:00,76.9,76.5,29.15,SSW,202,0.0,2.3,98,0.00,,,0.02,Rainwise IP-100,2013-07-06 18:59:00,
2013-07-06 15:04:00,77.0,76.5,29.16,SSW,202,0.0,0.0,98,0.00,,,0.02,Rainwise IP-100,2013-07-06 19:04:00,
2013-07-06 15:09:00,77.0,76.5,29.16,SSW,202,0.0,0.0,98,0.00,,,0.02,Rainwise IP-100,2013-07-06 19:09:00,
2013-07-06 15:14:00,77.1,76.5,29.15,SSW,202,0.0,0.0,98,0.00,,,0.02,Rainwise IP-100,2013-07-06 19:14:00,
2013-07-06 15:19:00,77.3,76.8,29.15,SSW,202,0.0,0.0,98,0.00,,,0.02,Rainwise IP-100,2013-07-06 19:19:00,
2013-07-06 15:24:00,77.5,77.0,29.15,SSW,202,0.0,0.0,98,0.00,,,0.02,Rainwise IP-100,2013-07-06 19:24:00,
2013-07-06 15:29:00,77.8,77.0,29.15,SSW,202,0.0,0.0,98,0.00,,,0.02,Rainwise IP-100,2013-07-06 19:29:00,
2013-07-06 15:34:00,78.1,77.0,29.14,SSW,202,0.0,1.2,97,0.00,,,0.02,Rainwise IP-100,2013-07-06 19:34:00,
2013-07-06 15:39:00,78.3,77.0,29.14,SSW,202,0.0,0.0,96,0.00,,,0.02,Rainwise IP-100,2013-07-06 19:39:00,
2013-07-06 15:44:00,78.5,77.3,29.14,SSW,202,0.0,0.0,96,0.00,,,0.02,Rainwise IP-100,2013-07-06 19:44:00,
2013-07-06 15:49:00,78.7,77.7,29.14,SSW,202,0.0,0.0,97,0.00,,,0.02,Rainwise IP-100,2013-07-06 19:49:00,
2013-07-06 15:54:00,78.8,77.7,29.13,SSW,202,0.0,0.0,97,0.00,,,0.02,Rainwise IP-100,2013-07-06 19:54:00,
2013-07-06 15:59:00,78.8,77.7,29.13,SSW,202,0.0,0.0,97,0.00,,,0.02,Rainwise IP-100,2013-07-06 19:59:00,
2013-07-06 16:04:00,78.9,78.0,29.13,SSW,202,0.0,0.0,97,0.00,,,0.02,Rainwise IP-100,2013-07-06 20:04:00,
2013-07-06 16:09:00,79.1,78.0,29.14,SSW,202,0.0,0.0,97,0.00,,,0.02,Rainwise IP-100,2013-07-06 20:09:00,
2013-07-06 16:14:00,79.3,78.3,29.14,SSW,202,0.0,0.0,97,0.00,,,0.02,Rainwise IP-100,2013-07-06 20:14:00,
2013-07-06 16:19:00,79.3,78.3,29.14,SSW,202,0.0,0.0,97,0.00,,,0.02,Rainwise IP-100,2013-07-06 20:19:00,
2013-07-06 16:24:00,79.3,78.3,29.14,SSW,202,0.0,1.2,97,0.00,,,0.02,Rainwise IP-100,2013-07-06 20:24:00,
2013-07-06 16:29:00,79.3,78.0,29.14,SSW,202,0.0,0.0,96,0.00,,,0.02,Rainwise IP-100,2013-07-06 20:29:00,
2013-07-06 16:34:00,79.2,78.0,29.15,NE,45,1.4,1.4,96,0.00,,,0.02,Rainwise IP-100,2013-07-06 20:34:00,
2013-07-06 16:39:00,79.3,77.7,29.15,South,180,0.0,4.4,95,0.00,,,0.02,Rainwise IP-100,2013-07-06 20:39:00,
2013-07-06 16:44:00,79.4,77.3,29.14,South,180,0.0,1.2,94,0.00,,,0.02,Rainwise IP-100,2013-07-06 20:44:00,
2013-07-06 16:49:00,79.5,77.3,29.15,South,180,2.1,2.8,93,0.00,,,0.02,Rainwise IP-100,2013-07-06 20:49:00,
2013-07-06 16:54:00,79.7,77.0,29.14,South,180,0.0,3.7,92,0.00,,,0.02,Rainwise IP-100,2013-07-06 20:54:00,
2013-07-06 16:59:00,79.9,77.3,29.14,South,180,0.0,1.2,92,0.00,,,0.02,Rainwise IP-100,2013-07-06 20:59:00,
2013-07-06 17:04:00,79.9,77.7,29.14,South,180,0.0,0.0,93,0.00,,,0.02,Rainwise IP-100,2013-07-06 21:04:00,
2013-07-06 17:09:00,79.7,77.7,29.13,South,180,0.0,0.0,94,0.00,,,0.02,Rainwise IP-100,2013-07-06 21:09:00,
2013-07-06 17:14:00,79.6,77.7,29.13,South,180,0.0,0.0,94,0.00,,,0.02,Rainwise IP-100,2013-07-06 21:14:00,
2013-07-06 17:19:00,79.5,78.0,29.13,South,180,0.0,0.0,95,0.00,,,0.02,Rainwise IP-100,2013-07-06 21:19:00,
2013-07-06 17:24:00,79.5,78.0,29.13,South,180,0.0,0.0,95,0.00,,,0.02,Rainwise IP-100,2013-07-06 21:24:00,
2013-07-06 17:29:00,79.5,78.0,29.13,South,180,0.0,0.0,95,0.00,,,0.02,Rainwise IP-100,2013-07-06 21:29:00,
2013-07-06 17:34:00,79.5,78.0,29.14,South,180,0.0,0.0,95,0.00,,,0.02,Rainwise IP-100,2013-07-06 21:34:00,
2013-07-06 17:39:00,79.6,78.3,29.14,South,180,0.0,0.0,96,0.00,,,0.02,Rainwise IP-100,2013-07-06 21:39:00,
2013-07-06 17:44:00,79.6,78.3,29.15,South,180,0.0,0.0,96,0.00,,,0.02,Rainwise IP-100,2013-07-06 21:44:00,
2013-07-06 17:49:00,79.5,78.3,29.15,South,180,0.0,0.0,96,0.00,,,0.02,Rainwise IP-100,2013-07-06 21:49:00,
2013-07-06 17:54:00,79.4,78.0,29.15,South,180,0.0,0.0,96,0.00,,,0.02,Rainwise IP-100,2013-07-06 21:54:00,
2013-07-06 17:59:00,79.3,78.0,29.15,South,180,0.0,0.0,96,0.00,,,0.02,Rainwise IP-100,2013-07-06 21:59:00,
2013-07-06 18:04:00,79.1,78.0,29.15,South,180,0.0,0.0,97,0.00,,,0.02,Rainwise IP-100,2013-07-06 22:04:00,
2013-07-06 18:09:00,79.0,77.7,29.15,South,180,0.0,0.0,96,0.00,,,0.02,Rainwise IP-100,2013-07-06 22:09:00,
2013-07-06 18:14:00,78.8,77.3,29.15,South,180,0.0,0.0,96,0.00,,,0.02,Rainwise IP-100,2013-07-06 22:14:00,
2013-07-06 18:19:00,78.8,77.3,29.15,South,180,2.1,2.6,96,0.00,,,0.02,Rainwise IP-100,2013-07-06 22:19:00,
2013-07-06 18:24:00,78.6,77.3,29.14,SSW,202,0.0,2.3,96,0.00,,,0.02,Rainwise IP-100,2013-07-06 22:24:00,
2013-07-06 18:29:00,78.3,77.0,29.13,South,180,2.3,2.3,96,0.00,,,0.02,Rainwise IP-100,2013-07-06 22:29:00,
2013-07-06 18:34:00,78.0,76.5,29.14,South,180,0.0,3.0,95,0.00,,,0.02,Rainwise IP-100,2013-07-06 22:34:00,
2013-07-06 18:39:00,77.7,76.5,29.14,South,180,0.0,0.0,96,0.00,,,0.02,Rainwise IP-100,2013-07-06 22:39:00,
2013-07-06 18:44:00,77.3,76.3,29.14,South,180,0.0,0.0,96,0.00,,,0.02,Rainwise IP-100,2013-07-06 22:44:00,
2013-07-06 18:49:00,77.0,76.3,29.15,South,180,0.0,0.0,97,0.06,,,0.03,Rainwise IP-100,2013-07-06 22:49:00,
2013-07-06 18:54:00,76.7,76.0,29.14,South,180,0.0,0.0,97,0.06,,,0.03,Rainwise IP-100,2013-07-06 22:54:00,
2013-07-06 18:59:00,76.6,75.5,29.14,South,180,0.0,0.0,97,0.00,,,0.03,Rainwise IP-100,2013-07-06 22:59:00,
2013-07-06 19:04:00,76.5,76.0,29.14,South,180,0.0,0.0,98,0.00,,,0.03,Rainwise IP-100,2013-07-06 23:04:00,
2013-07-06 19:09:00,76.4,76.0,29.14,South,180,0.0,0.0,98,0.00,,,0.03,Rainwise IP-100,2013-07-06 23:09:00,
2013-07-06 19:14:00,76.3,75.5,29.14,South,180,0.0,0.0,98,0.00,,,0.03,Rainwise IP-100,2013-07-06 23:14:00,
2013-07-06 19:19:00,76.2,75.5,29.14,South,180,0.0,0.0,98,0.00,,,0.03,Rainwise IP-100,2013-07-06 23:19:00,
2013-07-06 19:24:00,76.2,75.5,29.14,South,180,0.0,0.0,98,0.00,,,0.03,Rainwise IP-100,2013-07-06 23:24:00,
2013-07-06 19:29:00,76.1,75.0,29.14,South,180,0.0,0.0,98,0.00,,,0.03,Rainwise IP-100,2013-07-06 23:29:00,
2013-07-06 19:34:00,76.1,75.5,29.14,South,180,0.0,0.0,99,0.00,,,0.03,Rainwise IP-100,2013-07-06 23:34:00,
2013-07-06 19:39:00,76.0,75.5,29.14,South,180,0.0,0.0,99,0.00,,,0.03,Rainwise IP-100,2013-07-06 23:39:00,
2013-07-06 19:44:00,75.9,75.5,29.14,South,180,0.0,0.0,99,0.00,,,0.03,Rainwise IP-100,2013-07-06 23:44:00,
2013-07-06 19:49:00,75.7,75.0,29.15,South,180,0.0,0.0,99,0.00,,,0.03,Rainwise IP-100,2013-07-06 23:49:00,
2013-07-06 19:54:00,75.6,75.0,29.17,SSW,202,1.9,5.6,99,0.00,,,0.03,Rainwise IP-100,2013-07-06 23:54:00,
2013-07-06 19:59:00,75.4,75.0,29.17,South,180,0.0,3.5,99,0.00,,,0.03,Rainwise IP-100,2013-07-06 23:59:00,
2013-07-06 20:04:00,75.1,74.7,29.16,South,180,0.0,0.0,99,0.00,,,0.03,Rainwise IP-100,2013-07-07 00:04:00,
2013-07-06 20:09:00,74.9,74.7,29.17,South,180,0.0,2.8,99,0.00,,,0.03,Rainwise IP-100,2013-07-07 00:09:00,
2013-07-06 20:14:00,74.7,74.3,29.16,NNE,22,0.0,2.8,99,0.00,,,0.03,Rainwise IP-100,2013-07-07 00:14:00,
2013-07-06 20:19:00,74.6,74.3,29.16,SSW,202,0.0,2.3,99,0.00,,,0.03,Rainwise IP-100,2013-07-07 00:19:00,
2013-07-06 20:24:00,74.5,74.7,29.16,South,180,0.0,3.5,100,0.00,,,0.03,Rainwise IP-100,2013-07-07 00:24:00,
2013-07-06 20:29:00,74.4,74.3,29.16,South,180,0.0,2.6,100,0.00,,,0.03,Rainwise IP-100,2013-07-07 00:29:00,
2013-07-06 20:34:00,74.3,74.3,29.15,South,180,0.0,0.0,100,0.00,,,0.03,Rainwise IP-100,2013-07-07 00:34:00,
2013-07-06 20:39:00,74.2,74.3,29.15,South,180,0.0,0.0,100,0.00,,,0.03,Rainwise IP-100,2013-07-07 00:39:00,
2013-07-06 20:44:00,74.1,74.0,29.15,South,180,0.0,0.0,100,0.00,,,0.03,Rainwise IP-100,2013-07-07 00:44:00,
2013-07-06 20:49:00,74.0,74.0,29.15,South,180,0.0,0.0,100,0.00,,,0.03,Rainwise IP-100,2013-07-07 00:49:00,
2013-07-06 20:54:00,73.9,74.0,29.15,South,180,0.0,0.0,100,0.00,,,0.03,Rainwise IP-100,2013-07-07 00:54:00,
2013-07-06 20:59:00,73.8,73.7,29.15,South,180,0.0,1.2,100,0.00,,,0.03,Rainwise IP-100,2013-07-07 00:59:00,
2013-07-06 21:04:00,73.7,73.7,29.15,South,180,0.0,0.0,100,0.00,,,0.03,Rainwise IP-100,2013-07-07 01:04:00,
2013-07-06 21:09:00,73.6,73.7,29.15,South,180,0.0,0.0,100,0.00,,,0.03,Rainwise IP-100,2013-07-07 01:09:00,
2013-07-06 21:14:00,73.5,73.7,29.15,South,180,0.0,0.0,100,0.00,,,0.03,Rainwise IP-100,2013-07-07 01:14:00,
2013-07-06 21:19:00,73.4,73.3,29.15,South,180,0.0,0.0,100,0.00,,,0.03,Rainwise IP-100,2013-07-07 01:19:00,
2013-07-06 21:24:00,73.4,73.3,29.15,South,180,0.0,0.0,100,0.00,,,0.03,Rainwise IP-100,2013-07-07 01:24:00,
2013-07-06 21:29:00,73.3,73.3,29.15,South,180,0.0,0.0,100,0.00,,,0.03,Rainwise IP-100,2013-07-07 01:29:00,
2013-07-06 21:34:00,73.3,73.3,29.15,South,180,0.0,0.0,100,0.00,,,0.03,Rainwise IP-100,2013-07-07 01:34:00,
2013-07-06 21:39:00,73.3,73.3,29.15,South,180,0.0,0.0,100,0.00,,,0.03,Rainwise IP-100,2013-07-07 01:39:00,
2013-07-06 21:44:00,73.3,73.3,29.16,South,180,0.0,0.0,100,0.00,,,0.03,Rainwise IP-100,2013-07-07 01:44:00,
2013-07-06 21:49:00,73.3,73.3,29.16,South,180,0.0,0.0,100,0.00,,,0.03,Rainwise IP-100,2013-07-07 01:49:00,
2013-07-06 21:54:00,73.3,73.3,29.16,South,180,0.0,0.0,100,0.00,,,0.03,Rainwise IP-100,2013-07-07 01:54:00,
2013-07-06 21:59:00,73.3,73.3,29.16,South,180,0.0,0.0,100,0.00,,,0.03,Rainwise IP-100,2013-07-07 01:59:00,
2013-07-06 22:04:00,73.1,73.0,29.17,South,180,0.0,0.0,100,0.00,,,0.03,Rainwise IP-100,2013-07-07 02:04:00,
2013-07-06 22:09:00,73.0,73.0,29.17,South,180,0.0,0.0,100,0.00,,,0.03,Rainwise IP-100,2013-07-07 02:09:00,
2013-07-06 22:14:00,73.0,73.0,29.17,South,180,0.0,0.0,100,0.00,,,0.03,Rainwise IP-100,2013-07-07 02:14:00,
2013-07-06 22:19:00,73.0,73.0,29.18,South,180,0.0,0.0,100,0.00,,,0.03,Rainwise IP-100,2013-07-07 02:19:00,
2013-07-06 22:24:00,72.9,73.0,29.18,South,180,0.0,0.0,100,0.00,,,0.03,Rainwise IP-100,2013-07-07 02:24:00,
2013-07-06 22:29:00,72.8,72.7,29.18,South,180,0.0,0.0,100,0.00,,,0.03,Rainwise IP-100,2013-07-07 02:29:00,
2013-07-06 22:34:00,72.8,72.7,29.18,South,180,0.0,0.0,100,0.00,,,0.03,Rainwise IP-100,2013-07-07 02:34:00,
2013-07-06 22:39:00,72.8,72.7,29.18,South,180,0.0,0.0,100,0.00,,,0.03,Rainwise IP-100,2013-07-07 02:39:00,
2013-07-06 22:44:00,72.8,72.7,29.17,South,180,0.0,0.0,100,0.00,,,0.03,Rainwise IP-100,2013-07-07 02:44:00,
2013-07-06 22:49:00,72.8,72.7,29.18,South,180,0.0,0.0,100,0.00,,,0.03,Rainwise IP-100,2013-07-07 02:49:00,
2013-07-06 22:54:00,72.8,72.7,29.18,South,180,0.0,0.0,100,0.00,,,0.03,Rainwise IP-100,2013-07-07 02:54:00,
2013-07-06 22:59:00,72.8,72.7,29.18,South,180,0.0,0.0,100,0.00,,,0.03,Rainwise IP-100,2013-07-07 02:59:00,
2013-07-06 23:04:00,72.8,72.7,29.18,South,180,0.0,0.0,100,0.00,,,0.03,Rainwise IP-100,2013-07-07 03:04:00,
2013-07-06 23:09:00,72.8,72.7,29.17,South,180,0.0,0.0,100,0.00,,,0.03,Rainwise IP-100,2013-07-07 03:09:00,
2013-07-06 23:14:00,72.8,72.7,29.17,South,180,0.0,0.0,100,0.00,,,0.03,Rainwise IP-100,2013-07-07 03:14:00,
2013-07-06 23:19:00,72.8,72.7,29.18,South,180,0.0,0.0,100,0.00,,,0.03,Rainwise IP-100,2013-07-07 03:19:00,
2013-07-06 23:24:00,72.8,72.7,29.17,South,180,0.0,0.0,100,0.00,,,0.03,Rainwise IP-100,2013-07-07 03:24:00,
2013-07-06 23:29:00,72.8,72.7,29.18,South,180,0.0,0.0,100,0.00,,,0.03,Rainwise IP-100,2013-07-07 03:29:00,
2013-07-06 23:34:00,72.7,72.7,29.18,South,180,0.0,0.0,100,0.00,,,0.03,Rainwise IP-100,2013-07-07 03:34:00,
2013-07-06 23:39:00,72.7,72.7,29.18,South,180,0.0,0.0,100,0.00,,,0.03,Rainwise IP-100,2013-07-07 03:39:00,
2013-07-06 23:44:00,72.6,72.7,29.18,South,180,0.0,0.0,100,0.00,,,0.03,Rainwise IP-100,2013-07-07 03:44:00,
2013-07-06 23:49:00,72.6,72.7,29.19,South,180,0.0,0.0,100,0.00,,,0.03,Rainwise IP-100,2013-07-07 03:49:00,
2013-07-06 23:54:00,72.6,72.7,29.19,South,180,0.0,0.0,100,0.00,,,0.03,Rainwise IP-100,2013-07-07 03:54:00,
2013-07-06 23:59:00,72.6,72.7,29.19,South,180,0.0,0.0,100,0.00,,,0.03,Rainwise IP-100,2013-07-07 03:59:00,